TimeCST,TemperatureF,Dew PointF,Humidity,Sea Level PressureIn,VisibilityMPH,Wind Direction,Wind SpeedMPH,Gust SpeedMPH,PrecipitationIn,Events,Conditions,WindDirDegrees,DateUTC
12:15 AM,31.3,30.0,95,29.99,10.0,East,8.1,-,N/A,,Overcast,90,2013-03-05 06:15:00
12:35 AM,31.3,30.0,95,29.98,10.0,East,9.2,-,N/A,,Overcast,90,2013-03-05 06:35:00
12:55 AM,31.5,30.0,94,29.98,10.0,East,9.2,-,N/A,,Overcast,90,2013-03-05 06:55:00
1:15 AM,31.5,30.0,94,29.98,10.0,East,8.1,-,N/A,,Overcast,80,2013-03-05 07:15:00
1:35 AM,31.1,30.0,96,29.97,10.0,East,9.2,-,N/A,,Overcast,80,2013-03-05 07:35:00
1:55 AM,31.1,29.8,95,29.96,10.0,East,9.2,-,N/A,,Overcast,80,2013-03-05 07:55:00
2:15 AM,31.1,30.0,96,29.95,10.0,East,10.4,-,N/A,,Overcast,90,2013-03-05 08:15:00
2:35 AM,31.3,30.0,95,29.94,10.0,East,9.2,-,N/A,,Overcast,90,2013-03-05 08:35:00
2:55 AM,31.5,30.2,95,29.93,7.0,East,9.2,-,N/A,,Overcast,90,2013-03-05 08:55:00
3:15 AM,31.8,30.2,94,29.92,10.0,East,10.4,-,N/A,,Overcast,90,2013-03-05 09:15:00
3:35 AM,31.8,30.2,94,29.92,10.0,East,12.7,16.1,N/A,,Overcast,100,2013-03-05 09:35:00
3:55 AM,31.8,30.2,94,29.92,10.0,East,10.4,-,N/A,,Overcast,90,2013-03-05 09:55:00
4:15 AM,31.8,29.8,92,29.92,10.0,East,9.2,-,N/A,,Overcast,90,2013-03-05 10:15:00
4:35 AM,31.8,29.3,90,29.91,10.0,East,10.4,-,N/A,,Overcast,90,2013-03-05 10:35:00
4:55 AM,31.8,29.3,90,29.90,10.0,East,10.4,-,N/A,,Overcast,90,2013-03-05 10:55:00
5:15 AM,32.0,29.3,90,29.90,10.0,East,11.5,-,N/A,,Overcast,100,2013-03-05 11:15:00
5:35 AM,32.0,29.1,89,29.91,10.0,East,11.5,-,N/A,,Overcast,100,2013-03-05 11:35:00
5:55 AM,32.0,28.9,88,29.90,10.0,East,12.7,-,N/A,,Overcast,100,2013-03-05 11:55:00
6:15 AM,32.0,28.6,87,29.90,10.0,East,12.7,-,N/A,,Overcast,100,2013-03-05 12:15:00
6:35 AM,32.0,28.4,87,29.90,10.0,East,10.4,-,N/A,,Overcast,100,2013-03-05 12:35:00
7:15 AM,32.0,28.0,85,29.89,10.0,East,12.7,-,N/A,,Overcast,100,2013-03-05 13:15:00
7:35 AM,32.2,27.7,83,29.88,10.0,East,12.7,21.9,N/A,,Overcast,100,2013-03-05 13:35:00
7:55 AM,32.7,27.1,80,29.88,10.0,East,13.8,-,N/A,,Overcast,100,2013-03-05 13:55:00
8:15 AM,32.9,27.0,79,29.88,10.0,East,9.2,-,N/A,,Overcast,100,2013-03-05 14:15:00
8:35 AM,33.1,26.6,77,29.87,10.0,East,11.5,-,N/A,,Overcast,100,2013-03-05 14:35:00
8:55 AM,33.1,26.6,77,29.86,10.0,East,15.0,23.0,N/A,,Overcast,100,2013-03-05 14:55:00
9:15 AM,33.1,26.6,77,29.86,10.0,ESE,13.8,-,N/A,,Overcast,110,2013-03-05 15:15:00
9:35 AM,33.1,26.8,78,29.86,3.0,East,17.3,20.7,N/A,,Overcast,100,2013-03-05 15:35:00
10:15 AM,32.0,29.1,89,29.85,1.2,East,13.8,18.4,N/A,,Overcast,100,2013-03-05 16:15:00
10:35 AM,32.0,29.8,92,29.82,1.5,East,16.1,19.6,N/A,,Overcast,90,2013-03-05 16:35:00
10:55 AM,32.0,30.0,92,29.82,2.5,East,13.8,20.7,N/A,,Overcast,90,2013-03-05 16:55:00
11:15 AM,32.0,30.2,93,29.81,2.5,East,11.5,19.6,N/A,,Overcast,90,2013-03-05 17:15:00
11:35 AM,32.0,30.2,93,29.81,3.0,East,11.5,-,N/A,,Overcast,90,2013-03-05 17:35:00
11:55 AM,32.0,30.2,93,29.81,3.0,East,11.5,-,N/A,,Overcast,100,2013-03-05 17:55:00
12:15 PM,32.0,30.4,94,29.79,1.8,East,9.2,-,N/A,,Overcast,90,2013-03-05 18:15:00
12:35 PM,32.0,30.7,95,29.78,1.2,East,11.5,-,N/A,,Overcast,80,2013-03-05 18:35:00
12:55 PM,32.0,30.7,95,29.77,1.2,East,8.1,-,N/A,,Overcast,80,2013-03-05 18:55:00
1:15 PM,31.8,30.7,96,29.77,0.8,East,6.9,-,N/A,,Overcast,80,2013-03-05 19:15:00
1:35 PM,31.5,30.7,97,29.75,0.5,ENE,10.4,-,N/A,,Overcast,70,2013-03-05 19:35:00
1:55 PM,31.3,30.7,98,29.74,0.8,ENE,10.4,-,N/A,,Overcast,60,2013-03-05 19:55:00
2:15 PM,31.1,30.7,99,29.74,0.8,ENE,6.9,-,N/A,,Overcast,60,2013-03-05 20:15:00
2:35 PM,30.9,30.4,98,29.74,0.5,ENE,9.2,-,N/A,,Overcast,60,2013-03-05 20:35:00
2:55 PM,30.7,30.2,98,29.73,0.5,NE,11.5,-,N/A,,Overcast,50,2013-03-05 20:55:00
3:15 PM,30.6,30.0,98,29.73,0.8,NE,9.2,-,N/A,,Overcast,40,2013-03-05 21:15:00
3:35 PM,30.4,29.8,98,29.73,0.8,NE,10.4,-,N/A,,Overcast,50,2013-03-05 21:35:00
3:55 PM,30.0,29.5,98,29.73,0.5,NE,8.1,16.1,N/A,,Overcast,50,2013-03-05 21:55:00
4:15 PM,29.7,29.3,99,29.74,0.5,NE,9.2,-,N/A,,Overcast,40,2013-03-05 22:15:00
4:35 PM,29.3,29.1,99,29.75,0.2,NE,10.4,-,N/A,,Overcast,40,2013-03-05 22:35:00
4:55 PM,29.1,28.9,99,29.75,0.5,NNE,10.4,-,N/A,,Overcast,20,2013-03-05 22:55:00
5:15 PM,28.8,28.4,99,29.76,0.5,NNE,8.1,-,N/A,,Overcast,20,2013-03-05 23:15:00
5:35 PM,28.4,28.2,99,29.76,0.5,NNE,16.1,-,N/A,,Overcast,20,2013-03-05 23:35:00
5:55 PM,28.4,28.4,100,29.77,0.2,NNE,9.2,-,N/A,,Overcast,20,2013-03-05 23:55:00
6:15 PM,28.2,28.0,99,29.78,0.8,NNE,11.5,-,N/A,,Overcast,20,2013-03-06 00:15:00
6:35 PM,28.0,27.7,99,29.78,1.0,NNE,9.2,-,N/A,,Overcast,30,2013-03-06 00:35:00
6:55 PM,27.9,27.5,99,29.78,0.8,North,9.2,-,N/A,,Overcast,10,2013-03-06 00:55:00
7:15 PM,27.9,27.5,99,29.78,1.0,North,9.2,-,N/A,,Overcast,10,2013-03-06 01:15:00
7:35 PM,28.0,27.9,99,29.79,0.8,North,9.2,-,N/A,,Overcast,10,2013-03-06 01:35:00
7:55 PM,28.0,27.9,99,29.79,1.5,North,8.1,-,N/A,,Overcast,350,2013-03-06 01:55:00
8:15 PM,28.0,27.9,99,29.80,1.5,North,8.1,-,N/A,,Overcast,350,2013-03-06 02:15:00
8:35 PM,28.2,28.0,99,29.80,0.8,NNW,9.2,-,N/A,,Overcast,340,2013-03-06 02:35:00
8:55 PM,28.4,28.4,100,29.80,0.8,NNW,12.7,-,N/A,,Overcast,340,2013-03-06 02:55:00
9:15 PM,28.8,28.8,100,29.81,0.8,North,15.0,-,N/A,,Overcast,350,2013-03-06 03:15:00
9:35 PM,29.1,28.9,99,29.82,1.0,North,17.3,-,N/A,,Overcast,350,2013-03-06 03:35:00
9:55 PM,28.9,28.8,99,29.83,1.5,North,16.1,-,N/A,,Overcast,350,2013-03-06 03:55:00
10:15 PM,29.1,28.9,99,29.84,1.5,North,17.3,-,N/A,,Overcast,350,2013-03-06 04:15:00
10:35 PM,29.1,28.8,99,29.85,1.2,North,15.0,-,N/A,,Overcast,360,2013-03-06 04:35:00
10:55 PM,28.8,28.4,99,29.85,1.8,North,19.6,23.0,N/A,,Overcast,360,2013-03-06 04:55:00
11:15 PM,28.6,28.0,98,29.86,2.0,North,19.6,26.5,N/A,,Overcast,360,2013-03-06 05:15:00
11:35 PM,28.4,27.5,96,29.87,2.5,North,17.3,24.2,N/A,,Overcast,360,2013-03-06 05:35:00
11:55 PM,28.4,27.1,95,29.88,3.0,North,17.3,-,N/A,,Overcast,360,2013-03-06 05:55:00